Location: Unspecified
(0.0000°N, 0.0000°E)
Time: 16:32:06
(UTC+00:00)

ISS - Visible Passes

Search period start: 17 January 2020 00:00
Search period end: 27 January 2020 00:00
Orbit: 415 x 421 km, 51.6° (Epoch: 18 January)

Date Brightness Start Highest point End Pass type
(mag) Time Alt. Az. Time Alt. Az. Time Alt. Az.
17 Jan -1.2 04:48:01 11° NNE 04:50:02 17° NE 04:52:14 10° E visible
18 Jan -2.9 05:35:41 10° WNW 05:38:41 33° SW 05:41:44 10° SSE visible
19 Jan -3.9 04:50:20 65° NW 04:50:46 88° WSW 04:54:06 10° SE visible
20 Jan -0.8 04:04:57 17° ESE 04:04:57 17° ESE 04:05:57 10° ESE visible
21 Jan -1.5 04:52:28 14° SSW 04:52:28 14° SSW 04:53:38 10° SSW visible
